Temp
-5 -5 -5 -5 -5 -6 -5 -5 -6 -6 -6 -7 -7 -7 -7 -7 -7 -7 -7 -7 -7 -7 -7 -6 -6 -6 -6 -6 -6 -6 -6 -6 -6 -6 -7 -6 -6 -7 -6 -6 -6 -6 -6 -6 -6 -6 -6 -6 -6
-5 -5 -5 -5 -7 -8 -4 -5 -5 -6 -6 -7 -7 -7 -7 -7 -7 -7 -7 -7 -7 -7 -7 -7 -6 -6 -6 -6 -6 -6 -6 -6 -6 -7 -7 -6 -7 -7 -6 -6 -6 -6 -6 -6 -6 -6 -6 -6 -6
-5 -5 -5 -4 -4 -4 -4 -4 -4 -5 -5 -6 -7 -7 -7 -7 -6 -7 -6 -7 -6 -7 -7 -6 -6 -6 -6 -6 -6 -6 -6 -6 -6 -6 -6 -7 -7 -6 -6 -6 -6 -6 -6 -6 -6 -6 -6 -6 -6
-5 -5 -4 -4 -4 -4 -4 -4 -4 -5 -5 -5 -6 -6 -7 -7 -6 -6 -6 -6 -6 -6 -6 -6 -6 -6 -6 -5 -6 -6 -6 -6 -7 -7 -7 -7 -7 -6 -6 -6 -6 -6 -6 -6 -6 -6 -6 -6 -6
-5 -5 -4 -4 -4 -4 -4 -4 -4 -4 -5 -5 -6 -6 -6 -7 -7 -6 -6 -6 -6 -6 -6 -6 -6 -6 -6 -6 -6 -6 -6 -6 -6 -6 -7 -7 -6 -6 -6 -6 -5 -5 -6 -6 -6 -6 -6 -6 -6
-4 -5 -5 -4 -4 -4 -4 -3 -4 -4 -4 -5 -5 -5 -5 -6 -6 -6 -6 -6 -6 -6 -6 -6 -6 -6 -6 -6 -6 -6 -7 -6 -6 -7 -7 -6 -6 -6 -5 -5 -5 -6 -6 -6 -6 -6 -6 -6 -6
-4 -5 -5 -4 -4 -4 -4 -4 -4 -4 -4 -4 -4 -5 -5 -5 -6 -6 -6 -6 -6 -6 -6 -6 -6 -6 -6 -6 -6 -6 -6 -6 -6 -6 -6 -6 -6 -6 -5 -5 -6 -6 -6 -6 -6 -6 -6 -7 -7
-4 -4 -4 -4 -4 -4 -4 -4 -4 -3 -3 -3 -4 -5 -4 -4 -5 -6 -6 -6 -6 -6 -6 -6 -6 -6 -6 -6 -6 -6 -6 -6 -6 -6 -6 -6 -6 -5 -5 -5 -6 -6 -6 -6 -6 -7 -7 -7 -8
-4 -4 -4 -4 -4 -4 -4 -4 -4 -3 -3 -3 -3 -4 -5 -4 -4 -5 -6 -6 -6 -6 -6 -6 -6 -6 -6 -6 -7 -7 -7 -6 -6 -6 -6 -6 -5 -5 -5 -6 -6 -6 -6 -7 -7 -7 -8 -8 -8
-4 -4 -3 -4 -4 -4 -4 -4 -4 -4 -3 -3 -4 -3 -4 -4 -5 -5 -5 -5 -5 -6 -6 -6 -6 -5 -5 -6 -6 -7 -7 -6 -6 -6 -6 -6 -5 -5 -6 -6 -6 -6 -7 -7 -7 -8 -8 -8 -8
-4 -4 -3 -4 -4 -4 -4 -4 -4 -4 -4 -3 -3 -3 -4 -4 -4 -5 -5 -5 -5 -5 -6 -6 -6 -6 -5 -6 -6 -6 -6 -6 -6 -6 -5 -5 -5 -6 -6 -6 -6 -6 -7 -7 -8 -8 -8 -8 -8
-4 -4 -4 -3 -4 -3 -4 -4 -4 -4 -4 -4 -3 -4 -4 -3 -4 -5 -5 -5 -5 -5 -5 -5 -5 -6 -5 -6 -6 -6 -6 -6 -6 -5 -5 -5 -5 -5 -6 -6 -6 -7 -7 -7 -8 -8 -8 -8 -8
-4 -4 -4 -3 -4 -4 -4 -4 -4 -4 -4 -4 -3 -3 -4 -4 -4 -4 -5 -5 -5 -5 -5 -5 -5 -5 -5 -5 -5 -5 -6 -6 -5 -5 -5 -5 -5 -5 -6 -6 -6 -6 -7 -7 -8 -8 -8 -8 -8
-4 -4 -4 -4 -5 -4 -4 -4 -4 -4 -4 -4 -3 -3 -3 -4 -4 -4 -4 -5 -5 -5 -5 -5 -5 -5 -5 -5 -5 -5 -5 -5 -5 -5 -5 -5 -6 -6 -6 -6 -6 -7 -7 -7 -8 -8 -8 -8 -8
-3 -4 -4 -4 -5 -4 -4 -4 -4 -4 -4 -4 -4 -4 -3 -3 -4 -4 -5 -5 -5 -5 -5 -5 -5 -5 -5 -5 -5 -5 -5 -5 -5 -5 -5 -5 -6 -6 -6 -6 -6 -7 -7 -8 -8 -8 -8 -8 -9
-4 -4 -5 -4 -4 -4 -4 -3 -3 -4 -4 -4 -4 -4 -4 -4 -4 -4 -5 -5 -5 -5 -5 -5 -5 -5 -5 -5 -5 -5 -5 -5 -5 -5 -5 -5 -6 -6 -6 -6 -6 -7 -7 -7 -8 -8 -8 -9 -9
-5 -4 -4 -5 -4 -5 -4 -4 -3 -3 -4 -4 -4 -4 -4 -4 -4 -4 -4 -5 -5 -4 -4 -5 -5 -5 -5 -5 -5 -5 -5 -5 -5 -5 -5 -5 -5 -5 -5 -6 -6 -6 -7 -7 -8 -8 -8 -9 -9
-4 -4 -4 -5 -5 -6 -5 -5 -4 -4 -4 -3 -4 -4 -4 -4 -4 -4 -4 -4 -5 -5 -5 -5 -5 -5 -5 -5 -5 -5 -5 -5 -5 -5 -5 -5 -5 -5 -5 -5 -6 -6 -7 -7 -8 -8 -8 -8 -8
-4 -4 -4 -4 -5 -5 -5 -5 -5 -5 -4 -3 -3 -3 -4 -4 -4 -4 -4 -4 -4 -5 -5 -5 -5 -5 -5 -5 -5 -5 -5 -5 -5 -5 -5 -5 -5 -5 -5 -5 -5 -6 -6 -7 -7 -7 -8 -8 -8
-4 -4 -4 -4 -5 -4 -5 -6 -6 -6 -5 -5 -4 -4 -4 -4 -4 -4 -4 -4 -4 -5 -5 -4 -4 -4 -5 -5 -4 -4 -4 -5 -5 -5 -5 -5 -5 -5 -5 -5 -5 -5 -6 -7 -7 -7 -8 -8 -8
-4 -4 -4 -4 -5 -6 -5 -6 -6 -6 -6 -6 -5 -5 -4 -4 -4 -4 -5 -4 -4 -4 -5 -5 -4 -4 -4 -4 -4 -4 -4 -4 -5 -5 -5 -5 -5 -6 -6 -6 -6 -6 -6 -6 -7 -7 -7 -7 -7
-5 -4 -4 -4 -5 -6 -6 -7 -6 -6 -6 -6 -6 -6 -5 -5 -5 -5 -5 -5 -5 -4 -4 -5 -5 -4 -4 -4 -4 -4 -4 -5 -5 -5 -5 -5 -6 -6 -6 -6 -6 -6 -6 -6 -6 -6 -6 -6 -7
-5 -5 -5 -5 -5 -5 -5 -5 -8 -6 -6 -7 -7 -7 -6 -5 -5 -5 -5 -5 -5 -4 -4 -4 -5 -5 -5 -4 -4 -4 -4 -5 -4 -4 -5 -5 -5 -5 -6 -6 -6 -6 -6 -6 -6 -6 -6 -6 -6
-6 -6 -5 -5 -5 -4 -5 -5 -7 -8 -7 -7 -6 -7 -7 -6 -6 -5 -4 -4 -5 -4 -5 -4 -4 -5 -5 -4 -4 -4 -4 -4 -4 -5 -5 -5 -5 -5 -6 -6 -6 -6 -6 -6 -6 -6 -6 -6 -6
-6 -6 -6 -5 -5 -5 -6 -6 -6 -8 -6 -6 -7 -6 -7 -7 -7 -6 -5 -4 -5 -5 -5 -5 -5 -5 -5 -4 -4 -4 -4 -4 -4 -5 -5 -5 -5 -5 -6 -6 -6 -6 -6 -6 -6 -6 -6 -6 -6
-7 -7 -7 -6 -7 -8 -5 -5 -6 -6 -5 -7 -7 -7 -7 -7 -8 -7 -6 -6 -5 -5 -5 -5 -5 -5 -5 -5 -5 -5 -5 -5 -5 -5 -5 -5 -5 -5 -5 -5 -6 -6 -6 -6 -6 -6 -6 -6 -6
-7 -7 -7 -7 -7 -7 -6 -6 -6 -6 -5 -6 -7 -7 -7 -7 -7 -8 -8 -6 -6 -5 -5 -5 -5 -5 -5 -6 -6 -5 -5 -5 -5 -5 -5 -5 -5 -5 -5 -6 -6 -6 -6 -6 -6 -6 -6 -6 -6
-8 -8 -8 -8 -8 -7 -7 -6 -6 -6 -5 -6 -6 -7 -8 -8 -8 -7 -8 -8 -7 -6 -5 -5 -6 -5 -5 -6 -6 -6 -6 -5 -5 -5 -5 -5 -6 -5 -5 -6 -6 -6 -6 -6 -6 -6 -6 -6 -6
-9 -9 -8 -8 -8 -8 -7 -8 -6 -7 -6 -6 -6 -6 -7 -7 -8 -8 -7 -8 -7 -7 -6 -6 -6 -6 -5 -6 -6 -5 -6 -6 -5 -5 -5 -5 -6 -6 -6 -6 -6 -6 -6 -6 -6 -7 -6 -6 -6
-9 -9 -9 -9 -9 -8 -8 -8 -7 -7 -7 -7 -7 -7 -6 -7 -7 -8 -8 -7 -8 -7 -7 -7 -6 -6 -6 -6 -6 -6 -6 -6 -6 -6 -6 -5 -6 -6 -6 -6 -6 -6 -6 -6 -6 -6 -6 -6 -6
Height
5899 5897 5896 5895 5897 5891 5892 5893 5892 5891 5891 5890 5891 5890 5890 5890 5891 5893 5891 5893 5895 5897 5900 5901 5903 5905 5906 5907 5908 5909 5909 5910 5911 5912 5913 5915 5916 5917 5919 5921 5922 5923 5925 5924 5924 5926 5926 5926 5925
5901 5900 5899 5898 5897 5897 5897 5895 5895 5894 5894 5893 5893 5893 5893 5893 5892 5893 5893 5895 5897 5899 5902 5904 5906 5907 5908 5909 5909 5910 5911 5912 5914 5915 5916 5917 5916 5920 5922 5924 5926 5927 5927 5928 5929 5929 5929 5928 5928
5904 5901 5902 5901 5899 5899 5899 5898 5898 5897 5896 5895 5895 5895 5894 5895 5896 5896 5896 5898 5901 5904 5905 5906 5908 5909 5910 5911 5911 5912 5913 5915 5916 5917 5918 5919 5921 5923 5925 5927 5929 5929 5931 5932 5932 5932 5932 5931 5930
5905 5905 5905 5904 5904 5902 5900 5901 5901 5900 5898 5899 5897 5898 5897 5897 5899 5900 5900 5903 5905 5907 5908 5908 5910 5911 5912 5913 5913 5914 5916 5917 5918 5919 5921 5923 5925 5927 5929 5931 5932 5933 5933 5935 5936 5935 5935 5934 5933
5908 5907 5907 5907 5907 5906 5903 5904 5903 5903 5902 5901 5901 5901 5900 5900 5901 5903 5904 5906 5907 5909 5911 5911 5912 5914 5914 5915 5916 5917 5919 5918 5917 5918 5921 5926 5929 5931 5934 5935 5936 5937 5937 5937 5937 5938 5938 5938 5938
5910 5910 5910 5911 5910 5910 5906 5906 5906 5905 5905 5905 5904 5904 5903 5903 5903 5906 5907 5909 5910 5913 5914 5914 5914 5914 5915 5917 5918 5921 5922 5922 5922 5923 5926 5929 5933 5935 5937 5938 5939 5940 5940 5940 5940 5941 5941 5941 5941
5912 5913 5913 5914 5913 5913 5911 5911 5910 5909 5909 5908 5908 5908 5908 5907 5907 5910 5911 5912 5913 5915 5917 5917 5916 5917 5916 5919 5923 5924 5925 5926 5927 5929 5931 5933 5936 5938 5939 5941 5942 5942 5943 5943 5943 5944 5944 5944 5944
5914 5915 5916 5917 5915 5915 5914 5914 5914 5912 5912 5910 5911 5911 5911 5911 5911 5913 5915 5916 5917 5918 5919 5920 5920 5921 5922 5924 5926 5928 5929 5931 5932 5933 5935 5936 5938 5941 5942 5944 5945 5945 5945 5947 5948 5948 5947 5947 5948
5917 5918 5919 5919 5918 5918 5916 5916 5916 5914 5914 5913 5913 5914 5914 5914 5914 5915 5917 5918 5919 5920 5922 5923 5924 5924 5925 5927 5929 5931 5932 5933 5935 5937 5938 5940 5941 5944 5945 5946 5947 5948 5949 5950 5951 5950 5951 5952 5951
5919 5920 5920 5920 5919 5919 5918 5918 5918 5917 5915 5915 5916 5916 5916 5916 5915 5917 5918 5919 5919 5921 5924 5926 5927 5927 5927 5929 5931 5932 5934 5936 5937 5940 5941 5943 5945 5947 5948 5949 5950 5951 5953 5954 5954 5954 5955 5956 5955
5921 5922 5921 5921 5920 5921 5920 5920 5920 5919 5918 5917 5917 5918 5919 5919 5918 5918 5919 5921 5922 5923 5924 5926 5929 5930 5931 5931 5932 5934 5936 5937 5939 5942 5944 5945 5947 5948 5950 5951 5953 5955 5956 5957 5957 5957 5958 5959 5960
5922 5923 5923 5923 5922 5922 5922 5921 5921 5922 5921 5920 5918 5918 5919 5919 5920 5920 5921 5922 5923 5924 5926 5928 5930 5932 5933 5933 5934 5936 5938 5939 5941 5944 5945 5947 5948 5951 5953 5954 5956 5958 5959 5958 5959 5960 5961 5962 5963
5922 5923 5925 5924 5922 5922 5922 5922 5923 5923 5923 5922 5921 5921 5920 5920 5921 5921 5922 5923 5924 5926 5927 5930 5932 5933 5935 5936 5937 5938 5939 5941 5943 5946 5947 5949 5951 5953 5955 5957 5959 5961 5961 5961 5962 5963 5964 5965 5966
5923 5924 5925 5924 5924 5924 5924 5924 5924 5923 5925 5924 5924 5923 5923 5922 5922 5923 5923 5923 5925 5926 5928 5930 5933 5934 5936 5938 5939 5940 5941 5943 5945 5947 5950 5952 5954 5955 5958 5959 5961 5963 5963 5963 5964 5965 5967 5968 5968
5923 5925 5925 5925 5924 5925 5925 5926 5925 5925 5925 5926 5926 5925 5925 5925 5924 5924 5924 5925 5925 5927 5929 5931 5933 5935 5937 5940 5941 5942 5943 5945 5947 5949 5951 5954 5956 5957 5959 5961 5963 5965 5966 5965 5965 5967 5969 5970 5970
5924 5925 5924 5923 5924 5927 5928 5927 5926 5926 5926 5927 5927 5927 5926 5926 5926 5926 5926 5926 5927 5928 5930 5931 5933 5935 5937 5939 5942 5943 5944 5946 5949 5951 5954 5955 5957 5959 5961 5962 5964 5966 5967 5967 5966 5967 5970 5971 5972
5924 5924 5925 5925 5925 5927 5928 5928 5928 5927 5927 5928 5928 5928 5928 5928 5928 5927 5928 5928 5929 5931 5931 5933 5934 5936 5937 5939 5941 5944 5946 5948 5950 5953 5955 5957 5959 5960 5962 5963 5965 5966 5967 5967 5967 5969 5971 5973 5973
5922 5924 5924 5925 5925 5926 5927 5928 5928 5929 5929 5929 5930 5929 5930 5930 5930 5930 5929 5930 5930 5932 5933 5934 5936 5937 5938 5939 5941 5943 5946 5949 5952 5953 5955 5958 5960 5961 5963 5964 5965 5966 5967 5968 5969 5971 5972 5973 5974
5921 5922 5923 5923 5923 5925 5926 5927 5928 5929 5931 5931 5930 5930 5931 5931 5932 5931 5931 5931 5931 5931 5933 5935 5936 5937 5938 5939 5940 5942 5946 5949 5952 5955 5956 5958 5959 5961 5963 5965 5966 5967 5968 5970 5971 5971 5973 5974 5974
5918 5920 5921 5921 5922 5923 5924 5926 5927 5928 5931 5931 5930 5930 5931 5930 5930 5932 5932 5932 5932 5933 5934 5935 5936 5938 5939 5940 5941 5944 5946 5949 5952 5955 5957 5958 5960 5961 5963 5965 5966 5967 5969 5970 5971 5973 5974 5974 5974
5913 5916 5918 5919 5921 5922 5924 5924 5924 5926 5927 5928 5929 5930 5929 5929 5930 5929 5931 5932 5933 5933 5934 5935 5936 5938 5940 5942 5943 5945 5948 5951 5953 5954 5956 5958 5959 5961 5962 5964 5966 5968 5969 5970 5971 5973 5973 5973 5973
5910 5912 5914 5915 5918 5920 5921 5925 5922 5924 5926 5925 5925 5925 5924 5925 5927 5928 5929 5929 5929 5932 5933 5935 5936 5938 5940 5941 5943 5944 5946 5949 5951 5953 5955 5957 5959 5961 5962 5963 5965 5967 5968 5969 5970 5970 5971 5971 5971
5903 5908 5909 5910 5912 5914 5916 5919 5921 5920 5922 5921 5921 5920 5921 5921 5924 5925 5926 5927 5928 5930 5932 5933 5935 5937 5939 5940 5941 5943 5945 5947 5950 5952 5955 5957 5958 5959 5961 5962 5964 5965 5967 5968 5969 5969 5969 5969 5970
5900 5902 5904 5905 5906 5906 5912 5911 5915 5918 5915 5913 5914 5916 5917 5919 5919 5922 5923 5924 5926 5928 5929 5932 5934 5935 5937 5939 5940 5942 5943 5946 5948 5950 5953 5954 5955 5957 5958 5960 5961 5963 5964 5965 5966 5967 5968 5968 5968
5896 5897 5899 5901 5901 5904 5903 5903 5907 5909 5906 5908 5911 5911 5913 5914 5916 5917 5918 5921 5921 5923 5925 5927 5930 5932 5934 5936 5938 5938 5940 5943 5945 5947 5948 5951 5952 5953 5955 5956 5957 5959 5960 5961 5962 5963 5964 5964 5965
5890 5892 5893 5894 5897 5900 5896 5899 5900 5900 5903 5905 5905 5906 5908 5909 5911 5912 5914 5914 5917 5919 5920 5921 5924 5927 5930 5932 5934 5936 5937 5940 5941 5943 5945 5946 5948 5949 5950 5952 5953 5954 5955 5956 5957 5957 5958 5959 5960
5882 5884 5887 5888 5888 5890 5892 5891 5893 5893 5893 5897 5899 5900 5901 5903 5905 5906 5908 5910 5910 5912 5916 5917 5918 5920 5923 5926 5928 5931 5934 5936 5938 5939 5941 5942 5944 5945 5947 5948 5949 5949 5950 5951 5951 5952 5953 5954 5954
5876 5877 5878 5879 5881 5882 5884 5884 5885 5883 5885 5888 5890 5891 5894 5894 5897 5899 5900 5903 5904 5906 5908 5912 5914 5914 5916 5918 5923 5925 5928 5931 5933 5934 5936 5938 5939 5940 5942 5944 5944 5945 5946 5946 5947 5947 5948 5949 5949
5868 5868 5870 5870 5873 5874 5877 5878 5876 5876 5876 5875 5877 5879 5882 5885 5887 5890 5893 5895 5896 5899 5901 5905 5908 5910 5912 5913 5916 5919 5922 5925 5927 5930 5932 5933 5934 5935 5937 5937 5939 5940 5941 5941 5942 5942 5943 5944 5944
5857 5859 5861 5862 5863 5864 5865 5870 5865 5868 5866 5865 5865 5866 5868 5872 5875 5878 5882 5885 5887 5890 5892 5895 5899 5901 5906 5908 5909 5911 5912 5916 5920 5923 5925 5926 5928 5929 5931 5932 5933 5934 5935 5936 5937 5937 5938 5938 5939
Wind_Speed
15 19 17 14 16 22 18 15 16 19 19 19 17 18 18 17 19 19 19 19 20 19 19 21 22 20 19 17 15 14 13 14 14 14 18 22 23 22 23 24 26 27 26 26 25 22 20 18 15
13 18 17 14 22 15 15 15 13 17 16 17 16 16 17 17 16 16 18 18 18 18 18 20 20 19 18 15 14 14 12 16 16 15 15 23 24 26 28 27 28 26 24 23 20 18 15 14 12
13 17 17 17 20 16 16 14 12 14 16 16 16 16 18 17 16 16 16 19 19 18 17 19 19 18 16 14 13 13 13 14 17 8 20 19 28 28 27 27 26 25 23 20 17 15 14 13 13
12 17 16 21 17 17 17 13 12 13 17 17 16 15 18 18 16 17 19 20 19 18 17 18 18 17 17 15 16 16 15 11 14 14 18 31 27 26 27 25 24 23 20 17 16 16 15 15 15
12 16 18 19 17 16 19 13 13 13 15 17 16 17 16 18 16 15 17 18 19 18 17 18 16 17 14 17 19 19 17 14 17 20 31 30 25 25 25 24 23 20 17 15 15 16 16 17 16
11 13 16 15 15 15 19 14 12 12 13 16 16 17 18 18 18 15 16 18 19 17 16 18 16 15 15 20 24 26 25 24 31 31 28 26 23 26 24 23 20 17 15 15 17 17 18 18 19
13 12 15 15 14 15 17 14 11 12 11 13 16 15 17 19 20 16 16 18 19 17 17 18 15 17 24 27 25 25 24 22 23 24 25 25 26 26 24 21 18 16 16 18 17 18 19 20 23
11 11 13 14 14 15 16 14 12 12 10 12 13 14 15 19 20 18 17 17 17 16 14 15 16 21 25 25 25 22 21 21 20 22 25 27 27 24 22 18 16 17 17 17 18 19 22 23 24
8 11 12 12 14 14 13 13 12 13 9 10 13 13 13 15 18 19 18 16 15 14 14 13 15 18 23 24 22 21 21 22 21 23 26 28 26 23 19 18 18 17 17 19 19 21 23 23 23
11 13 12 13 14 13 12 10 10 13 11 10 12 13 13 13 14 15 15 14 14 14 13 12 14 18 21 23 23 22 22 23 23 25 27 26 24 21 18 18 18 18 20 19 21 22 22 21 20
11 10 10 11 12 12 10 9 9 12 12 12 14 11 11 9 13 14 14 13 12 12 13 12 14 16 18 21 23 22 24 24 26 28 27 25 22 19 18 18 19 19 20 20 21 21 20 18 17
10 7 8 8 10 11 8 8 9 8 10 11 13 11 10 10 9 10 11 13 13 13 12 13 14 17 18 20 21 23 23 25 26 29 26 23 20 18 18 19 20 21 21 22 22 19 18 17 16
5 9 8 9 8 8 7 7 8 7 7 9 10 11 9 9 9 9 11 12 14 14 14 12 15 17 18 20 20 21 22 23 26 28 25 22 19 18 20 19 21 20 21 22 20 19 17 16 15
9 10 7 6 3 3 2 4 7 8 5 6 7 10 9 10 11 8 8 11 13 16 16 15 15 17 19 19 19 20 20 22 25 27 24 20 18 19 20 20 21 21 22 22 20 19 17 15 14
11 8 13 10 12 4 2 4 5 5 6 6 5 7 9 9 13 11 7 8 11 14 16 17 17 18 19 18 19 20 20 23 26 26 23 20 18 18 21 21 22 23 23 22 22 19 16 14 13
11 12 11 9 13 5 5 2 4 4 8 8 7 5 8 10 10 11 9 8 9 12 16 17 18 19 20 20 17 18 21 25 28 25 23 20 18 19 21 22 24 22 23 22 22 19 16 14 13
11 9 11 9 13 10 5 2 2 5 6 7 7 8 7 8 9 10 11 10 7 8 13 17 17 18 19 21 18 17 23 27 26 24 22 19 17 19 21 23 23 21 20 21 20 19 16 13 11
12 12 11 12 13 15 8 5 3 3 2 3 6 7 7 7 7 7 10 10 11 10 11 15 16 16 19 19 19 21 25 27 26 23 20 18 16 17 20 21 23 20 19 20 19 18 15 13 10
16 13 14 16 14 14 8 5 5 5 5 5 3 6 8 6 7 8 7 9 10 12 14 16 15 20 19 19 21 25 29 29 26 22 19 17 15 13 17 20 21 20 18 18 18 17 15 12 9
15 15 17 19 23 18 14 11 8 7 4 9 9 6 7 12 11 10 11 10 11 11 13 15 18 18 19 20 24 28 30 29 27 22 18 16 14 12 13 19 19 18 18 18 16 15 14 12 10
18 15 15 21 21 25 20 15 15 11 8 9 8 11 11 12 16 15 15 12 11 13 15 17 18 18 19 20 25 28 27 26 25 22 20 17 15 13 11 12 18 18 18 18 18 16 14 12 11
20 18 17 19 25 25 24 15 20 18 12 11 12 15 19 17 15 19 18 18 17 15 15 17 18 18 19 21 25 28 29 29 27 26 23 19 16 13 11 10 9 16 18 19 18 18 16 15 13
27 19 21 21 22 26 28 25 17 20 16 21 20 21 20 21 20 19 23 23 22 19 17 18 19 21 21 24 26 28 29 30 28 25 22 20 17 15 12 12 12 11 12 18 20 20 20 18 17
22 23 23 24 25 28 20 26 19 17 22 28 27 25 24 23 24 23 23 24 25 22 20 19 18 20 24 26 27 28 30 30 29 27 25 23 21 19 18 17 16 16 15 15 17 21 24 24 23
21 21 22 24 25 25 27 30 26 26 30 28 25 28 25 25 27 27 27 25 26 25 25 23 23 20 22 24 26 29 32 32 30 29 29 27 25 22 21 20 19 19 18 18 19 20 23 27 27
24 24 24 26 23 18 30 29 30 32 27 31 30 27 27 29 30 29 30 30 30 28 27 27 27 27 25 24 26 28 30 32 33 31 30 29 28 27 25 23 21 20 19 19 20 23 25 26 26
28 28 27 28 30 30 31 33 29 31 33 33 37 37 32 33 34 32 30 29 32 33 29 28 31 31 30 29 29 30 32 31 32 32 32 32 30 28 26 25 24 23 22 21 22 23 25 27 29
30 30 30 31 30 31 30 32 29 34 32 34 37 41 39 38 41 38 36 34 32 32 34 32 33 34 34 34 32 32 32 33 34 35 35 33 32 31 29 27 26 25 23 22 22 22 22 24 27
30 32 32 35 35 35 33 28 32 30 31 32 35 42 44 46 44 46 43 40 38 34 32 33 33 36 36 36 34 34 34 35 35 34 35 35 35 33 30 27 26 26 24 23 22 21 22 21 24
34 35 34 35 36 37 38 35 38 32 35 34 36 37 47 48 51 48 48 45 45 38 37 34 36 36 39 38 39 37 37 37 36 37 38 39 39 37 35 32 30 29 27 26 24 25 22 22 23
Wind_Direction
57 56 58 63 78 76 79 74 80 83 89 91 98 105 108 115 121 120 128 126 125 122 128 126 132 128 123 121 127 126 125 132 124 112 125 138 127 123 109 110 109 105 108 106 102 98 92 85 79
50 53 57 69 83 78 76 79 78 87 85 91 93 100 105 108 111 119 128 128 123 122 126 127 129 129 120 117 122 126 135 149 138 125 138 145 127 119 113 110 111 114 112 104 99 93 87 81 72
59 59 58 66 77 85 84 75 75 88 89 88 90 98 103 108 115 117 122 124 124 124 124 125 124 126 126 117 130 141 137 144 159 123 149 132 117 118 117 117 116 113 106 99 92 91 81 78 82
69 62 64 64 73 86 88 85 79 82 86 88 90 96 109 115 121 123 125 128 128 127 125 123 125 123 124 124 126 147 142 138 182 159 147 121 116 119 120 119 111 105 98 101 93 82 84 87 85
90 75 66 63 63 79 88 86 88 85 90 91 92 99 105 115 126 131 131 130 129 129 128 129 124 119 114 124 124 134 124 114 168 159 130 128 122 123 121 114 106 103 100 89 83 88 88 90 90
104 83 70 60 65 76 82 80 91 97 100 103 103 104 108 110 111 125 134 134 129 129 128 130 123 111 116 125 128 123 115 108 123 115 118 124 127 126 120 112 109 104 99 93 92 90 88 90 95
91 89 76 74 73 77 76 76 93 101 107 108 111 113 115 113 116 116 118 125 131 130 127 126 122 106 124 126 129 124 122 110 108 115 124 130 130 128 119 114 110 102 98 95 92 96 98 98 96
95 84 81 71 79 81 78 73 73 96 108 113 115 116 123 123 120 125 126 126 127 127 127 129 127 123 126 124 129 127 129 123 120 125 129 129 129 125 119 115 107 98 98 100 104 104 101 100 98
91 98 98 88 80 85 79 73 70 70 88 121 123 121 122 130 131 135 139 139 134 129 126 129 136 135 139 137 138 134 132 128 130 131 133 133 129 125 119 113 102 102 106 107 106 105 105 101 97
120 113 106 95 86 82 91 81 74 67 74 127 133 133 130 135 134 140 146 146 144 138 130 132 144 144 140 141 141 142 140 137 136 139 139 136 131 126 119 109 112 113 113 114 111 108 106 103 94
134 122 114 106 97 91 89 93 74 74 69 95 132 136 135 144 145 148 150 151 154 151 145 141 147 152 145 145 145 146 143 143 143 148 146 138 130 125 117 119 117 119 118 115 112 111 105 100 94
178 147 140 115 100 101 96 98 98 85 85 79 102 129 138 141 146 150 161 161 163 162 162 151 148 154 152 148 145 143 147 149 148 152 146 137 130 125 123 124 123 125 119 116 112 113 110 102 96
178 181 140 141 144 122 109 112 104 103 97 91 92 106 119 134 141 148 150 164 168 167 166 157 153 158 156 155 147 147 150 152 151 154 149 140 136 131 130 128 130 127 120 115 116 117 113 107 100
177 178 179 192 180 137 27 125 128 123 126 111 96 101 101 116 119 124 153 155 163 167 168 157 158 163 164 160 153 150 155 155 156 156 150 146 144 137 136 132 130 125 122 121 119 117 113 108 100
193 203 220 238 242 224 191 123 122 142 153 147 130 117 109 105 111 106 120 149 163 174 170 165 163 167 167 160 157 154 159 159 160 161 154 152 149 141 142 135 130 128 126 125 124 125 122 115 105
189 197 220 229 223 205 162 188 130 117 168 173 157 144 134 128 121 112 101 132 162 173 179 174 170 169 164 170 163 164 166 162 162 163 159 157 154 149 148 142 137 137 133 130 128 131 128 114 110
189 198 208 224 241 235 235 244 55 40 155 167 183 174 161 160 149 135 119 116 150 172 172 179 173 169 166 167 171 172 174 167 165 165 163 161 158 156 156 152 151 151 145 141 135 136 129 126 118
208 218 230 229 239 233 238 258 268 27 32 164 202 201 189 178 168 161 139 130 137 164 181 175 171 174 170 170 173 175 177 172 170 168 164 161 159 161 166 163 165 164 158 151 143 139 141 138 124
218 235 234 229 224 218 210 250 287 289 286 327 268 219 212 190 203 187 169 151 140 157 174 185 189 174 175 175 175 173 173 171 171 171 166 158 154 158 173 177 176 177 173 163 155 149 150 149 139
232 229 240 224 204 206 212 209 242 263 274 311 280 258 217 211 200 211 198 186 162 155 174 183 184 186 182 179 174 173 172 175 172 171 169 164 158 158 171 186 188 188 185 176 172 163 166 167 162
246 235 229 233 228 223 218 230 238 251 243 289 287 277 252 231 218 207 209 198 193 178 177 186 189 189 187 182 180 177 179 178 175 174 176 176 173 168 166 181 199 200 201 193 189 186 188 191 193
246 237 238 228 226 234 233 233 244 247 231 248 266 266 252 240 228 215 216 209 199 204 193 192 199 203 197 189 189 187 186 187 186 186 186 185 185 185 183 184 187 211 214 215 209 206 207 213 219
247 246 243 245 242 231 240 247 244 257 248 245 249 254 251 249 238 229 221 219 218 208 206 205 201 200 204 199 197 198 195 196 198 201 201 201 200 201 202 203 205 211 219 227 228 226 231 237 239
253 254 250 244 247 248 242 252 245 258 241 239 235 237 245 247 249 243 238 228 226 219 217 215 212 210 206 211 207 206 208 205 207 211 216 216 215 215 216 219 224 229 235 237 238 240 244 246 250
253 254 257 257 255 257 254 250 253 243 240 245 232 235 238 246 248 250 249 240 234 227 226 221 220 219 221 218 217 213 214 215 214 217 222 228 229 229 229 229 235 245 249 250 249 248 248 250 253
260 256 252 258 256 250 252 257 258 252 244 240 237 230 235 240 244 246 247 251 246 243 230 225 222 224 224 226 224 220 217 219 222 223 225 229 234 236 235 238 245 249 253 254 253 250 249 250 252
263 258 259 256 259 257 259 263 260 259 249 240 236 238 241 231 238 242 246 248 253 249 238 230 224 223 223 227 229 228 225 224 226 227 227 230 232 236 240 243 247 247 250 254 255 254 251 250 252
259 263 261 257 256 258 259 259 263 259 258 250 242 235 237 234 230 236 240 247 250 253 249 240 234 226 223 223 229 234 234 230 229 228 228 228 231 236 242 250 251 255 258 260 261 262 259 256 253
258 258 256 258 258 256 256 261 252 258 257 256 247 239 236 234 234 234 236 239 245 247 250 248 241 238 230 229 229 233 237 238 237 235 236 236 237 240 245 249 248 254 258 263 267 266 264 261 259
262 259 258 256 259 254 256 253 259 248 253 252 251 245 235 235 236 238 231 235 235 239 246 247 246 241 235 234 231 232 235 238 239 241 241 242 242 243 245 249 250 253 256 258 265 270 265 261 263